Regional Weather Roundup
Issued by NWS Lake Charles, LA

Home | Current Version | Previous Version | Text Only | Print | Product List | Glossary On
Versions: 1 2 3 4 5 6 7 8 9 10 11 12 13 14 15 16 17 18 19 20 21 22 23 24 25 26 27 28 29 30 31 32 33 34 35 36 37 38 39 40 41 42 43 44 45 46 47 48 49 50
000
ASUS44 KLCH 310310
RWRLCH
REGIONAL WEATHER ROUNDUP
NATIONAL WEATHER SERVICE LAKE CHARLES LA
1000 PM CDT SAT JUL 30 2016

Note: "fair" indicates few or no clouds below 12,000 feet with no
significant weather and/or obstructions to visibility.


ACROSS SOUTHEAST TEXAS

CITY           SKY/WX    TMP DP  RH WIND       PRES   REMARKS
BEAUMONT       CLEAR     80  77  90 CALM      29.99R
BEAUMONT CITY  FAIR      82  76  83 CALM      30.00R
ORANGE         CLEAR     82  76  82 CALM      30.01R
JASPER         CLOUDY    81  75  82 CALM      30.02R
$$

ACROSS CENTRAL LOUISIANA

CITY           SKY/WX    TMP DP  RH WIND       PRES   REMARKS
LEESVILLE      PTCLDY    83  76  78 S5        30.00R
FULLERTON      FAIR      81  76  84 CALM      29.98R
ALEXANDRIA INT PTCLDY    81  78  91 S5        29.99R
ESLER FIELD    CLEAR     78  77  96 CALM      30.01R
DERIDDER       FAIR      81  78  89 CALM      30.02R
OAKDALE        CLEAR     78  77  98 CALM      30.01R
OPELOUSAS      FAIR      79  76  89 S5        30.01R
$$

ACROSS SOUTHWEST AND SOUTH CENTRAL LOUISIANA

CITY           SKY/WX    TMP DP  RH WIND       PRES   REMARKS
SULPHUR        CLEAR     82  76  82 CALM      30.01R
LAKE CHARLES   CLEAR     81  77  88 CALM      30.00R
CHENNAULT INT  CLEAR     82  75  78 SW6       30.00R
CAMERON PHI    CLEAR     86  77  74 SW8       29.99R
DEQUINCY       FAIR      80  76  89 CALM      30.00R
JENNINGS       FAIR      82  75  78 CALM      30.01R
LAFAYETTE      CLEAR     82  77  84 CALM      30.01R
NEW IBERIA     CLEAR     80  77  90 CALM      30.02R
ABBEVILLE      FAIR      79  78  98 CALM      30.02R
PATTERSON      CLEAR     80  77  90 SW3       30.02R
SALT POINT       N/A     85  76  74 CALM      29.99S
$$

SELECTED SITES ACROSS THE REGION

CITY           SKY/WX    TMP DP  RH WIND       PRES   REMARKS
HOUSTON BUSH   PTCLDY    85  75  72 S5        29.97R
HOUSTON HOBBY  PTCLDY    83  76  79 S7        29.97R
GALVESTON      CLEAR     84  79  85 S9        29.99R
COLLEGE STAT   CLEAR     86  74  67 SE10      29.97R
CONROE         CLEAR     81  74  79 SE3       29.98R
HUNTSVILLE     PTCLDY    82  72  71 S7        29.98R
LUFKIN         PTCLDY    83  74  74 S6        29.98R
SHREVEPORT     PTCLDY    79  74  84 E6        29.98R
MONROE         CLOUDY    74  73  97 CALM      30.09R
NATCHEZ MS     CLEAR     81  75  83 CALM      30.02R
BATON ROUGE    CLEAR     79  76  90 CALM      30.02R
N.O. INTL ARPT PTCLDY    86  75  69 SW7       30.02R
SLIDELL        CLEAR     79  78  97 CALM      30.02R
$$

MARINE REPORTS

STATION/POSITION TIME  SKY/WX   TEMP    WIND        PRES    VSBY
                                AIR SEA DIR/SP/G
                 (UTC)          (F)     (DEG/KT/KT) (MB)    (MI)
BUOY 30 S HIGH I 0250            86 87  210/ 12/ 14 1015.3R
WVE H/P(F/S)=  2/ 7

SEA RIM ST PARK  0300            85     210/  9/ 11 1016.2R
PORT ARTHUR      0200               88  200/  5/  5 1015.2R
SABINE PASS N    0200               90  210/  6/  9 1016.4R
TEXAS POINT      NOT AVBL
CALCASIEU PASS   0200               89  230/ 10/ 12 1014.6R
LK CHARLES BEACH 0200               88              1015.6R
MARSH ISLAND     NOT AVBL
FRESH WATER LOCK 0200               89  190/  4/  6 1016.2R
AMERADA PASS     0200               89   CALM  /  4 1015.9R
$$



USA.gov is the U.S. government's official web portal to all federal, state and local government web resources and services.